TimeCST,TemperatureF,Dew PointF,Humidity,Sea Level PressureIn,VisibilityMPH,Wind Direction,Wind SpeedMPH,Gust SpeedMPH,PrecipitationIn,Events,Conditions,WindDirDegrees,DateUTC
12:35 AM,67.1,65.3,94,30.02,10.0,Calm,Calm,-,N/A,,Mostly Cloudy,0,2013-11-06 06:35:00
12:55 AM,66.9,65.1,94,30.01,10.0,Calm,Calm,-,N/A,,Mostly Cloudy,0,2013-11-06 06:55:00
1:15 AM,66.0,64.8,96,30.01,7.0,Calm,Calm,-,N/A,,Scattered Clouds,0,2013-11-06 07:15:00
1:35 AM,65.5,64.2,96,30.01,7.0,SSW,5.8,-,N/A,,Clear,200,2013-11-06 07:35:00
1:55 AM,64.6,60.1,85,30.01,10.0,South,5.8,-,N/A,,Scattered Clouds,190,2013-11-06 07:55:00
2:15 AM,63.9,59.9,87,30.01,10.0,South,4.6,-,N/A,,Overcast,190,2013-11-06 08:15:00
2:35 AM,63.7,59.9,87,30.02,10.0,Calm,Calm,-,N/A,,Overcast,0,2013-11-06 08:35:00
2:55 AM,64.2,60.4,87,30.02,10.0,SSW,5.8,-,N/A,Rain,Light Rain,200,2013-11-06 08:55:00
3:15 AM,63.9,61.7,93,30.02,10.0,SSW,6.9,-,N/A,Rain,Rain,200,2013-11-06 09:15:00
3:35 AM,64.4,61.7,91,30.01,10.0,SSW,8.1,-,0.01,,Drizzle,210,2013-11-06 09:35:00
3:55 AM,63.9,60.8,90,30.02,10.0,SSW,3.5,-,0.01,,Overcast,210,2013-11-06 09:55:00
4:15 AM,63.5,60.8,91,30.03,10.0,Calm,Calm,-,N/A,,Mostly Cloudy,0,2013-11-06 10:15:00
4:35 AM,63.0,60.1,90,30.04,10.0,West,3.5,-,N/A,,Scattered Clouds,260,2013-11-06 10:35:00
4:55 AM,62.2,59.5,91,30.04,10.0,Calm,Calm,-,N/A,,Clear,0,2013-11-06 10:55:00
5:15 AM,60.8,59.0,94,30.04,10.0,Calm,Calm,-,N/A,,Clear,0,2013-11-06 11:15:00
5:35 AM,59.0,57.6,95,30.05,10.0,Calm,Calm,-,N/A,,Clear,0,2013-11-06 11:35:00
5:55 AM,59.5,58.5,96,30.05,10.0,Calm,Calm,-,N/A,,Scattered Clouds,0,2013-11-06 11:55:00
6:15 AM,60.3,59.0,96,30.06,10.0,Calm,Calm,-,N/A,,Overcast,0,2013-11-06 12:15:00
6:35 AM,61.3,59.4,93,30.06,10.0,Calm,Calm,-,N/A,,Scattered Clouds,0,2013-11-06 12:35:00
6:55 AM,59.2,57.6,94,30.07,10.0,Calm,Calm,-,N/A,,Clear,0,2013-11-06 12:55:00
7:15 AM,59.5,58.6,97,30.08,10.0,Calm,Calm,-,N/A,,Mostly Cloudy,0,2013-11-06 13:15:00
7:35 AM,61.5,60.4,96,30.09,10.0,NNW,3.5,-,N/A,,Overcast,330,2013-11-06 13:35:00
7:55 AM,62.2,61.0,96,30.11,10.0,NW,3.5,-,N/A,,Overcast,310,2013-11-06 13:55:00
8:15 AM,57.7,55.0,91,30.15,7.0,North,23.0,33.4,N/A,Rain,Light Rain,350,2013-11-06 14:15:00
8:35 AM,55.0,52.9,92,30.17,5.0,NNW,20.7,25.3,0.02,Rain,Heavy Rain,340,2013-11-06 14:35:00
8:55 AM,53.1,51.1,93,30.18,10.0,North,18.4,26.5,0.02,Rain,Light Rain,350,2013-11-06 14:55:00
9:15 AM,53.1,51.1,93,30.19,10.0,North,11.5,16.1,N/A,,Overcast,350,2013-11-06 15:15:00
9:35 AM,53.2,50.5,91,30.21,10.0,NNW,12.7,19.6,N/A,Rain,Light Rain,340,2013-11-06 15:35:00
9:55 AM,53.2,50.9,92,30.22,10.0,North,12.7,17.3,N/A,,Light Drizzle,360,2013-11-06 15:55:00
10:15 AM,53.1,50.4,91,30.24,10.0,NNW,10.4,16.1,N/A,,Overcast,340,2013-11-06 16:15:00
10:35 AM,52.3,50.0,92,30.24,7.0,North,11.5,-,0.06,Rain,Light Rain,350,2013-11-06 16:35:00
10:55 AM,52.0,49.3,90,30.24,10.0,North,13.8,-,0.06,,Overcast,350,2013-11-06 16:55:00
11:15 AM,52.7,49.6,89,30.23,10.0,North,8.1,-,N/A,,Mostly Cloudy,360,2013-11-06 17:15:00
11:35 AM,53.6,50.2,88,30.23,10.0,North,6.9,-,N/A,,Light Drizzle,360,2013-11-06 17:35:00
11:55 AM,53.4,49.5,86,30.23,10.0,North,10.4,-,N/A,,Overcast,350,2013-11-06 17:55:00
12:15 PM,53.1,49.3,87,30.23,10.0,North,12.7,-,N/A,,Mostly Cloudy,360,2013-11-06 18:15:00
12:35 PM,55.0,50.0,83,30.22,10.0,North,15.0,19.6,N/A,,Scattered Clouds,360,2013-11-06 18:35:00
12:55 PM,55.8,50.2,82,30.22,10.0,North,13.8,17.3,N/A,,Scattered Clouds,360,2013-11-06 18:55:00
1:15 PM,55.2,49.6,81,30.23,10.0,North,16.1,-,N/A,,Mostly Cloudy,350,2013-11-06 19:15:00
1:35 PM,56.5,49.1,76,30.22,10.0,North,17.3,-,N/A,,Scattered Clouds,360,2013-11-06 19:35:00
1:55 PM,57.2,49.3,75,30.23,10.0,North,18.4,21.9,N/A,,Scattered Clouds,360,2013-11-06 19:55:00
2:15 PM,57.2,48.0,71,30.22,10.0,North,17.3,-,N/A,,Mostly Cloudy,350,2013-11-06 20:15:00
2:35 PM,58.3,48.4,70,30.22,10.0,NNW,15.0,-,N/A,,Mostly Cloudy,340,2013-11-06 20:35:00
2:55 PM,57.7,47.3,68,30.22,10.0,North,18.4,21.9,N/A,,Mostly Cloudy,360,2013-11-06 20:55:00
3:15 PM,59.5,47.1,63,30.22,10.0,North,15.0,-,N/A,,Scattered Clouds,360,2013-11-06 21:15:00
3:35 PM,58.3,45.1,62,30.22,10.0,North,13.8,18.4,N/A,,Mostly Cloudy,10,2013-11-06 21:35:00
3:55 PM,59.4,44.2,57,30.22,10.0,North,13.8,18.4,N/A,,Scattered Clouds,360,2013-11-06 21:55:00
4:15 PM,59.5,45.5,60,30.21,10.0,North,11.5,17.3,N/A,,Scattered Clouds,10,2013-11-06 22:15:00
4:35 PM,59.0,44.8,59,30.22,10.0,North,15.0,18.4,N/A,,Scattered Clouds,360,2013-11-06 22:35:00
4:55 PM,59.0,43.9,57,30.22,10.0,North,13.8,-,N/A,,Clear,10,2013-11-06 22:55:00
5:15 PM,58.3,43.9,59,30.23,10.0,North,10.4,16.1,N/A,,Clear,360,2013-11-06 23:15:00
5:35 PM,57.4,44.6,62,30.24,10.0,North,8.1,-,N/A,,Clear,10,2013-11-06 23:35:00
5:55 PM,55.6,45.0,67,30.24,10.0,North,6.9,-,N/A,,Clear,10,2013-11-06 23:55:00
6:15 PM,55.8,44.2,65,30.26,10.0,NNE,6.9,-,N/A,,Clear,20,2013-11-07 00:15:00
6:35 PM,55.4,43.0,63,30.27,10.0,NNE,5.8,-,N/A,,Clear,20,2013-11-07 00:35:00
6:55 PM,54.3,42.8,65,30.27,10.0,NNE,5.8,-,N/A,,Clear,20,2013-11-07 00:55:00
7:15 PM,53.8,42.8,66,30.28,10.0,NNE,6.9,-,N/A,,Clear,20,2013-11-07 01:15:00
7:35 PM,53.4,42.4,66,30.29,10.0,North,8.1,-,N/A,,Clear,10,2013-11-07 01:35:00
7:55 PM,53.6,41.4,63,30.29,10.0,NNE,5.8,-,N/A,,Clear,20,2013-11-07 01:55:00
8:15 PM,52.3,41.9,68,30.30,10.0,NNE,5.8,-,N/A,,Clear,20,2013-11-07 02:15:00
8:35 PM,52.7,41.2,65,30.31,10.0,North,8.1,-,N/A,,Clear,10,2013-11-07 02:35:00
8:55 PM,52.2,41.0,66,30.31,10.0,NNE,5.8,-,N/A,,Clear,20,2013-11-07 02:55:00
9:15 PM,51.6,41.0,67,30.33,10.0,NNE,5.8,-,N/A,,Clear,30,2013-11-07 03:15:00
9:35 PM,51.8,40.1,64,30.33,10.0,NNE,6.9,-,N/A,,Clear,20,2013-11-07 03:35:00
9:55 PM,51.8,38.5,60,30.33,10.0,NNE,5.8,-,N/A,,Clear,30,2013-11-07 03:55:00
10:15 PM,51.1,37.9,61,30.34,10.0,NNE,5.8,-,N/A,,Clear,20,2013-11-07 04:15:00
10:35 PM,50.5,37.6,61,30.34,10.0,NNE,6.9,-,N/A,,Clear,20,2013-11-07 04:35:00
10:55 PM,49.8,37.6,63,30.35,10.0,NNE,6.9,-,N/A,,Clear,20,2013-11-07 04:55:00
11:15 PM,49.1,37.6,64,30.35,10.0,NNE,5.8,-,N/A,,Clear,20,2013-11-07 05:15:00
11:35 PM,47.5,37.8,69,30.35,10.0,NNE,3.5,-,N/A,,Clear,20,2013-11-07 05:35:00
11:55 PM,47.7,37.2,67,30.35,10.0,NNE,4.6,-,N/A,,Clear,20,2013-11-07 05:55:00